Hors Challenge

Les Marathon et Semi-Marathon de Namur (42.195 km)

dimanche 12 mai 2019

Le Classement original se trouve sur : http://www.chronorace.be
 
MARATHON & HALF-MARATHON - NAMUR
DISTANCE : 42.19 km
dimanche 12 mai 2019
 
Place Dos NOM Pays Catégorie Pl/cat temps temps/km Vitesse
1 3001 VAN SCHUERBEECK WILLEM BEL SH 1 2:18:19 03:17 18.30
2 1750 BRANDENBOURG MICHAEL BEL SH 2 2:21:43 03:22 17.86
3 665 SPEHLER SÉBASTIEN FRA SH 3 2:22:20 03:22 17.78
4 460 LEBLICQ SEB BEL SH 4 2:47:30 03:58 15.11
5 379 GUILMOT PIERRE-PHILIPPE BEL SH 5 2:51:32 04:04 14.76
6 697 VAN DER VEKEN GREG BEL SH 6 2:51:34 04:04 14.75
7 706 VAN OVERMEIRE JEROEN BEL V1 1 2:52:06 04:05 14.71
8 836 MOONENS DRIES BEL SH 7 2:52:10 04:05 14.70
9 4091 ETIENNE FABRICE BEL V2 1 2:52:25 04:05 14.68
10 499 MAHIA SÉBASTIEN BEL SH 8 2:54:24 04:08 14.51
11 488 LOUIS SÉBASTIEN BEL SH 9 2:54:43 04:08 14.49
12 589 PONCELET GUILLAUME BEL SH 10 2:54:57 04:09 14.47
13 390 HARDY ERIC BEL V2 2 2:56:00 04:10 14.38
14 260 DEPEAUW OLIVIER BEL V1 2 2:56:24 04:11 14.35
15 542 MORHET MASON BEL SH 11 2:56:44 04:11 14.32
16 778 DEMORTIER LUC BEL V1 3 2:58:20 04:14 14.19
17 196 COLOMER JEAN-FRANÇOIS FRA V1 4 2:58:27 04:14 14.18
18 563 PASTEELS JOHAN BEL SH 12 2:59:02 04:15 14.14
19 229 DE COCK GUILLAUME BEL SH 13 3:00:38 04:17 14.01
20 151 BLANPAIN PAUL FRA SH 14 3:00:59 04:17 13.99
21 583 PIRSOUL DENIS BEL V2 3 3:02:55 04:20 13.84
22 625 ROLIN BORIS BEL SH 15 3:02:57 04:20 13.84
23 673 TENAERTS ANTOINE BEL SH 16 3:04:37 04:23 13.71
24 528 MICHEL JEAN-BENOIT BEL V1 5 3:04:42 04:23 13.70
25 680 THIRY JÉRÔME BEL V1 6 3:04:46 04:23 13.70
26 703 VAN LANDEGHEM SIMON BEL SH 17 3:05:19 04:24 13.66
27 467 LE GALL ROBIN FRA SH 18 3:06:33 04:25 13.57
28 631 ROSEN BASILE BEL SH 19 3:06:35 04:25 13.57
29 477 LEONARD CHRISTOPHE FRA V1 7 3:06:46 04:26 13.55
30 116 ARQUIN THIBAUT BEL SH 20 3:07:41 04:27 13.49
31 817 LECAILLIÉ MATHILDE BEL SD 1 3:09:40 04:30 13.35
32 125 BAIJOT PHILIPPE BEL V2 4 3:10:27 04:31 13.29
33 179 CASTIAU ARTHUR BEL SH 21 3:10:49 04:31 13.27
34 792 FRANÇOIS CHRISTOHER BEL SH 22 3:11:23 04:32 13.23
35 547 MULLENDER CHRIS BEL SH 23 3:11:25 04:32 13.22
36 303 EVRARD BERTRAND BEL SH 24 3:12:21 04:34 13.16
37 232 DECROO YANNICK FRA V1 8 3:13:46 04:36 13.06
38 240 DELAIRE GAETAN FRA V1 9 3:13:49 04:36 13.06
39 635 RUTTEN TOM BEL SH 25 3:14:19 04:36 13.03
40 844 PLIS GRZEGORZ POL SH 26 3:14:25 04:37 13.02
41 324 FRAIKIN GRÉGORY BEL V1 10 3:14:35 04:37 13.01
42 534 MOLITOR ANDRE BEL V2 5 3:14:40 04:37 13.00
43 599 QUEVY LIONEL BEL V1 11 3:15:22 04:38 12.96
44 839 OGER STEPHAN BEL SH 27 3:15:28 04:38 12.95
45 231 DECROO FLORIAN FRA V1 12 3:15:39 04:38 12.94
46 856 TEERLINCK MICKAEL BEL SH 28 3:15:48 04:38 12.93
47 433 JOUNIAUX FRANÇOISE BEL A1 1 3:15:57 04:39 12.92
48 397 HERMANS BRECHT BEL SH 29 3:17:11 04:40 12.84
49 3017 PEPIN CEDRIC BEL V1 13 3:17:15 04:41 12.83
50 376 GUILLAUME MATHIAS BEL SH 30 3:17:22 04:41 12.82
51 366 GOURGUE BENJAMIN BEL SH 31 3:17:37 04:41 12.81
52 535 MONAUX ADRIEN BEL SH 32 3:18:07 04:42 12.78
53 788 FERRIN CÉDRIC BEL SH 33 3:18:58 04:43 12.72
54 682 TONNEAU NICOLAS FRA V1 14 3:19:00 04:43 12.72
55 430 JONNIAUX DENNIS BEL V1 15 3:19:05 04:43 12.71
56 620 ROCHETTE ARNAUD BEL SH 34 3:19:13 04:43 12.71
57 786 EMPAIN FRANÇOIS BEL SH 35 3:19:33 04:44 12.68
58 296 DUTHEUIL GUILLAUME FRA V1 16 3:19:46 04:44 12.67
59 259 DEPATURE FRANCK FRA V1 17 3:19:53 04:44 12.66
60 843 PIRLET YVES BEL V3 1 3:19:59 04:44 12.66
61 717 VERRIEST GAETAN BEL SH 36 3:20:01 04:44 12.65
62 622 ROCQ STÉPHANE BEL SH 37 3:20:11 04:45 12.64
63 452 LAMBILLION JENNY BEL A1 2 3:21:36 04:47 12.56
64 628 BLAMPAIN RONALD BEL SH 38 3:22:35 04:48 12.49
65 809 JASPARD JEROME BEL V1 18 3:23:21 04:49 12.45
66 815 LANCKRIET FRANÇOIS FRA SH 39 3:23:25 04:49 12.44
67 759 CARLIER FREDERIK BEL SH 40 3:23:40 04:50 12.43
68 783 DOLLAGUE GIL BEL SH 41 3:23:49 04:50 12.42
69 377 GUILLAUME PIERRE EMMANUEL BEL V2 6 3:23:51 04:50 12.42
70 597 PUYLAERT DOMINIQUE BEL V2 7 3:23:53 04:50 12.41
71 564 PATIGNY EMMANUEL FRA V1 19 3:23:55 04:50 12.41
72 380 GUSTIN JÉRÔME BEL V1 20 3:23:58 04:50 12.41
73 258 DEPASSE BRUNO BEL SH 42 3:23:58 04:50 12.41
74 862 VAN ESPEN JOHAN BEL V1 21 3:24:07 04:50 12.40
75 617 ROBERT JEAN-BAPTISTE BEL SH 43 3:24:10 04:50 12.40
76 724 WIGNY SABINE BEL A1 3 3:24:11 04:50 12.40
77 540 MOREELS GUILLAUME BEL SH 44 3:24:52 04:51 12.36
78 505 MALISOUX CÉCILE BEL SD 2 3:24:57 04:51 12.35
79 124 BAIJOT JULIEN BEL SH 45 3:25:02 04:52 12.35
80 670 SURIN LAURENT BEL V2 8 3:25:02 04:52 12.35
81 401 HERQUIN CLAUDY BEL V2 9 3:25:17 04:52 12.33
82 312 FERRANT TANGUY BEL V1 22 3:25:36 04:52 12.31
83 807 HRIOUED ALAA FRA SH 46 3:25:46 04:53 12.30
84 395 HENROTTE QUENTIN BEL SH 47 3:25:55 04:53 12.29
85 294 DUPONT FRANÇOIS BEL V1 23 3:26:13 04:53 12.27
86 301 ESSABRI JÉRÔME BEL SH 48 3:26:28 04:54 12.26
87 484 LIBOIS MARC BEL V1 24 3:26:51 04:54 12.24
88 164 BRANDERS HENDRIK BEL SH 49 3:27:01 04:54 12.23
89 329 GABRIEL ROLAND BEL V2 10 3:27:20 04:55 12.21
90 131 BAURAING DAVID BEL SH 50 3:27:24 04:55 12.20
91 652 SERVOTTE BENOIT BEL SH 51 3:27:46 04:55 12.18
92 782 DEROUWAUX MICHAËL BEL SH 52 3:28:14 04:56 12.16
93 344 GILLARD MICHAËL BEL V1 25 3:28:21 04:56 12.15
94 130 BAUGNIET SACHA BEL SH 53 3:28:27 04:56 12.14
95 530 MICHOT MARC BEL V2 11 3:28:36 04:57 12.13
96 529 MICHIELS MICHEL BEL V2 12 3:28:46 04:57 12.12
97 352 GOBERT CHRISTOPHE BEL V1 26 3:28:48 04:57 12.12
98 867 VERSET VINCENT BEL V1 27 3:28:56 04:57 12.11
99 634 ROUSSEAUX SOPHIE BEL A1 4 3:29:00 04:57 12.11
100 507 MANDERLIER ERIC BEL V2 13 3:29:03 04:57 12.11
101 327 FRIPIAT BERNARD BEL V1 28 3:29:30 04:58 12.08
102 802 HELLAS FRÉDÉRIC BEL V1 29 3:29:37 04:58 12.08
103 343 GIL GÉRARD FRA V2 14 3:29:48 04:58 12.06
104 449 LALANDE DOMINIQUE FRA V1 30 3:29:50 04:58 12.06
105 667 STASSIN FRANCIS BEL V3 2 3:29:58 04:59 12.06
106 501 MAISSIN HERVÉ BEL V1 31 3:30:02 04:59 12.05
107 137 BEFFORT MARC LUX V2 15 3:30:06 04:59 12.05
108 728 WILLEMART FRANÇOIS BEL SH 54 3:30:09 04:59 12.04
109 612 RENARD ROMAIN BEL SH 55 3:30:17 04:59 12.04
110 373 GROVEN BERT BEL SH 56 3:30:17 04:59 12.04
111 223 DECERF PIERRE-YVES BEL SH 57 3:30:27 04:59 12.03
112 145 BERTRAND MAXIME BEL SH 58 3:30:29 04:59 12.03
113 188 CHARLOTEAUX NICOLAS BEL V1 32 3:30:30 04:59 12.02
114 3023 MONNIER ISABELLE BEL A2 1 3:30:38 05:00 12.02
115 221 DEBORTOLI NICOLAS BEL SH 59 3:30:47 05:00 12.01
116 463 LEDOYEN FRANÇOIS BEL SH 60 3:31:09 05:00 11.99
117 4162 VAN PUYENBROECK EMMANUEL BEL SH 61 3:31:26 05:01 11.97
118 243 DELHAYE MARC BEL V2 16 3:31:35 05:01 11.96
119 363 GOSSELIN BLAISE BEL SH 62 3:31:46 05:01 11.95
120 811 JUNIUS ARNAUD BEL SH 63 3:32:19 05:02 11.92
121 666 STACHE ALEXANDRE BEL SH 64 3:32:24 05:02 11.92
122 627 HEYDEN COLINE BEL SD 3 3:32:37 05:02 11.90
123 219 DEBBAUT KARL BEL V1 33 3:32:39 05:02 11.90
124 810 JEANMART HERVÉ BEL V1 34 3:33:03 05:03 11.88
125 551 NARÓG PAWEL POL V1 35 3:33:06 05:03 11.88
126 489 LOUIS SÉBASTIEN BEL SH 65 3:33:38 05:04 11.85
127 538 MONTRAU ROBIN FRA SH 66 3:33:39 05:04 11.85
128 437 KEVIN LOOS BEL V1 36 3:33:43 05:04 11.84
129 853 SIGARD XAVIER BEL V1 37 3:33:44 05:04 11.84
130 688 VAN BOUWEL GUNTER BEL V1 38 3:34:03 05:04 11.83
131 654 SIBRET AURÉLIEN BEL SH 67 3:34:07 05:05 11.82
132 441 KRAMER PATRICK BEL V1 39 3:34:13 05:05 11.82
133 140 BERNARD BENJAMIN BEL SH 68 3:34:23 05:05 11.81
134 764 CLICHE CHRISTOPHE FRA V2 17 3:34:33 05:05 11.80
135 355 GODART PIERRE BEL SH 69 3:34:58 05:06 11.77
136 154 BODART FRANCIS BEL V3 3 3:35:06 05:06 11.77
137 3026 LIENARD PHILIPPE BEL V1 40 3:35:18 05:06 11.76
138 315 FEUILLEN VINCENT BEL V2 18 3:35:28 05:06 11.75
139 743 SADOUDI LAGDAR FRA V3 4 3:35:28 05:06 11.75
140 273 DEWANDRE THOMAS BEL SH 70 3:35:37 05:07 11.74
141 502 MALCOURANT KEEVIN BEL SH 71 3:35:42 05:07 11.73
142 141 BERNARD ERIC BEL V1 41 3:36:04 05:07 11.71
143 751 BARBIER RUDY BEL V2 19 3:36:07 05:07 11.71
144 261 DE PICKER PETER BEL V2 20 3:36:15 05:08 11.70
145 182 CERESSIAUX HERVÉ BEL V2 21 3:36:19 05:08 11.70
146 335 GEERINCKX THIBAULT BEL SH 72 3:36:25 05:08 11.70
147 733 WYLIN JELLE BEL V1 42 3:36:27 05:08 11.69
148 346 GILLET NICOLAS BEL SH 73 3:36:39 05:08 11.68
149 144 BERTRAND FRANCOIS BEL SH 74 3:36:45 05:08 11.68
150 439 KIPS DAVID BEL SH 75 3:36:48 05:08 11.68
151 860 TISSIER CHRISTOPHE FRA V1 43 3:36:52 05:08 11.67
152 496 MAESSCHALCK NICOLAS BEL SH 76 3:36:52 05:08 11.67
153 362 GOOR JEAN-NOËL BEL V1 44 3:36:57 05:09 11.67
154 263 DERAVET BERNARD BEL V3 5 3:36:58 05:09 11.67
155 692 VANDERBECKEN XAVIER BEL V1 45 3:37:39 05:10 11.63
156 314 FERY ETIENNE BEL V2 22 3:37:41 05:10 11.63
157 677 THIRION JÉRÔME BEL SH 77 3:37:50 05:10 11.62
158 431 JORIGAS DAVID BEL SH 78 3:37:54 05:10 11.62
159 3022 LEPRETRE CÉDRIC FRA V1 46 3:37:55 05:10 11.62
160 3024 PIERRET STEPHANE BEL V1 47 3:37:58 05:10 11.61
161 638 SCHELFAUT LUDOVIC BEL SH 79 3:38:02 05:10 11.61
162 799 GOSSET BORIS BEL V1 48 3:38:02 05:10 11.61
163 333 GAUCHER DAMIEN FRA V1 49 3:38:04 05:10 11.61
164 222 DE BOSCH KEMPER JULIEN BEL V1 50 3:38:12 05:10 11.60
165 642 SCHOLLAERT GEOFFREY BEL V1 51 3:38:20 05:11 11.59
166 292 DUPAS ANTOINE FRA SH 80 3:38:26 05:11 11.59
167 198 CONDY THIBAULT FRA SH 81 3:38:31 05:11 11.58
168 604 RAES CHRISTOPHE BEL V1 52 3:38:33 05:11 11.58
169 298 EFFINIER MATHIEU BEL SH 82 3:38:40 05:11 11.58
170 246 DELVAUX GUILLAUME BEL SH 83 3:38:55 05:11 11.56
171 348 GILSON JEREMY BEL SH 84 3:39:08 05:12 11.55
172 354 GOBLET MAXIME BEL SH 85 3:39:31 05:12 11.53
173 214 DARTOIS DIDIER BEL V2 23 3:39:36 05:12 11.53
174 696 VANDERSCHUEREN GUY BEL V2 24 3:39:41 05:12 11.52
175 726 WILLEM ALEXANDRE BEL V1 53 3:39:46 05:13 11.52
176 339 GERMIAT BORIS BEL SH 86 3:39:54 05:13 11.51
177 195 COLMANT EMMANUEL BEL V1 54 3:40:03 05:13 11.50
178 637 SARTELET ARNAUD FRA SH 87 3:40:03 05:13 11.50
179 490 LOUIS SÉBASTIEN BEL SH 88 3:40:10 05:13 11.50
180 820 LITU NARCIS ROU V1 55 3:40:14 05:13 11.49
181 675 THEYS SOPHIE BEL SD 4 3:40:15 05:13 11.49
182 349 GILSON JIMMY BEL SH 89 3:40:15 05:13 11.49
183 621 ROCHETTE BERTRAND BEL SH 90 3:40:31 05:14 11.48
184 559 PAGÈS NICOLAS BEL V1 56 3:40:34 05:14 11.48
185 225 DÉCHAMPS THIBAUT BEL SH 91 3:40:35 05:14 11.48
186 722 WELVAERT QUENTIN BEL SH 92 3:40:42 05:14 11.47
187 791 FOURNIER NICOLAS BEL V1 57 3:40:47 05:14 11.46
188 835 MOLS FRANK BEL V2 25 3:40:49 05:14 11.46
189 517 MASSET MAGALI BEL SD 5 3:40:51 05:14 11.46
190 3021 BIOT THOMAS BEL SH 93 3:40:52 05:14 11.46
191 139 BERGIERS PASCALE BEL A2 2 3:40:55 05:14 11.46
192 3032 VANEUKEM JEAN-LUC BEL V2 26 3:41:02 05:14 11.45
193 250 DEMAZY STEVE BEL V1 58 3:41:05 05:14 11.45
194 736 COURTIN BRUNO BEL V1 59 3:41:10 05:15 11.44
195 601 QUITTELIER JAS BEL SH 94 3:41:18 05:15 11.44
196 313 FERREIRA JOACHIM FRA SH 95 3:41:24 05:15 11.43
197 872 WITHOFS JAN BEL V2 27 3:41:25 05:15 11.43
198 158 BONTEMPI MATTIA ITA SH 96 3:41:35 05:15 11.42
199 159 BORCY GUILLAUME BEL SH 97 3:41:45 05:15 11.41
200 149 BIGARÉ SIMON BEL SH 98 3:41:45 05:15 11.41
201 765 COLARD FRANCOIS BEL V1 60 3:41:52 05:16 11.41
202 532 MINET SEBASTIEN BEL SH 99 3:42:05 05:16 11.40
203 487 LOSSEAU GUILLAUME BEL SH 100 3:42:13 05:16 11.39
204 265 DE SAEDELEER DAVID BEL SH 101 3:42:26 05:16 11.38
205 146 BEUGNIES DAVID BEL SH 102 3:42:28 05:16 11.38
206 3020 ALAMPASIS KONSTANTINOS GRC V1 61 3:42:29 05:16 11.38
207 472 LEJEUNE LUDOVIC BEL V1 62 3:42:32 05:16 11.37
208 781 DEREMINCE MAXIME BEL SH 103 3:42:32 05:16 11.37
209 345 GILLET ETIENNE BEL V2 28 3:42:33 05:17 11.37
210 178 CARTIAUX GÉRALD BEL V2 29 3:42:33 05:17 11.37
211 3028 MESKENS FLORIAN BEL SH 104 3:42:42 05:17 11.37
212 624 ROELANDS VINCENT BEL V1 63 3:42:42 05:17 11.37
213 336 GENGLER LIONEL BEL V1 64 3:43:15 05:18 11.34
214 676 THIBAUT PIERRE BEL SH 105 3:43:19 05:18 11.33
215 399 HERMANT WILLIAM BEL SH 106 3:43:20 05:18 11.33
216 375 GUILLAUME GREGORY BEL V1 65 3:43:30 05:18 11.33
217 491 LOXHAY SÉBASTIEN BEL SH 107 3:43:50 05:18 11.31
218 474 LEMAIRE JEANMARC BEL V1 66 3:44:21 05:19 11.28
219 769 DAMAR ANNE-CÉCILE BEL A1 5 3:44:25 05:19 11.28
220 645 SCOUBEAU OLIVIER BEL V2 30 3:44:40 05:20 11.27
221 633 ROSOUX LIONEL BEL V1 67 3:44:54 05:20 11.25
222 659 SOLDI OLIVIER BEL SH 108 3:44:54 05:20 11.25
223 814 LAGE OLIVEIRA RAPHAEL BRA SH 109 3:44:57 05:20 11.25
224 497 MAGEROTTE MATHIEU BEL SH 110 3:45:01 05:20 11.25
225 679 THIRY JEAN-FRANÇOIS BEL SH 111 3:45:02 05:20 11.25
226 476 LEMIERE MAGALI BEL A1 6 3:45:06 05:20 11.24
227 749 BADOUX VINCIANE BEL A2 3 3:45:23 05:21 11.23
228 825 MAJÉRUS BRUNO BEL SH 112 3:45:46 05:21 11.21
229 385 HALLOIN HAGUENIER BEL SH 113 3:46:01 05:21 11.20
230 823 MAGOTTEAUX HUBERT BEL V2 31 3:46:26 05:22 11.18
231 576 PINGAUT BENOÎT BEL SH 114 3:46:30 05:22 11.18
232 269 DE SMET NICOLAS BEL SH 115 3:46:33 05:22 11.17
233 405 HOCK AMAURY BEL SH 116 3:46:36 05:22 11.17
234 117 ATES SELMAN BEL V1 68 3:46:41 05:22 11.17
235 784 DUCOEUR KARL BEL V1 69 3:46:49 05:23 11.16
236 136 BÉCUE GUILLAUME BEL V1 70 3:47:00 05:23 11.15
237 498 MAGOTTEAUX CÉDRIC BEL V1 71 3:47:25 05:23 11.13
238 710 VERCRUYSSE GEERT BEL V1 72 3:47:35 05:24 11.12
239 455 LANGUY FABIAN BEL SH 117 3:47:41 05:24 11.12
240 656 SIMON ARNAUD BEL SH 118 3:48:05 05:24 11.10
241 254 DENIS MICHEL BEL V2 32 3:48:08 05:24 11.10
242 603 RADU ANTONIN BEL SH 119 3:48:11 05:25 11.09
243 3031 JADOUL ALEXANDRE BEL SH 120 3:48:39 05:25 11.07
244 725 WILLAUMEZ RACHEL BEL SD 6 3:48:47 05:25 11.06
245 545 MOUCHART JEAN-CHRISTOPHE BEL V1 73 3:48:50 05:25 11.06
246 821 LORANT MANU BEL V2 33 3:48:53 05:26 11.06
247 619 ROBIN MATHIEU BEL SH 121 3:48:56 05:26 11.06
248 398 HERMANT PHILIPPE BEL V1 74 3:49:24 05:26 11.03
249 760 CHARBON EMMANUEL BEL V1 75 3:49:49 05:27 11.01
250 371 GRIFFET OLIVIER BEL V1 76 3:50:17 05:28 10.99
251 672 TAROUDJIT ABDALLAH FRA V3 6 3:50:18 05:28 10.99
252 785 DUFFIEUX JEAN-MICHEL FRA V2 34 3:50:25 05:28 10.99
253 419 IDIR HOCINE FRA V3 7 3:50:28 05:28 10.98
254 213 DARDENNE FRÉDÉRIC BEL V1 77 3:50:30 05:28 10.98
255 161 BOUCHER MICHAEL FRA SH 122 3:50:30 05:28 10.98
256 698 VANDERYSE BENOÎT BEL SH 123 3:50:32 05:28 10.98
257 506 MALOTAUX PIERRE BEL V1 78 3:50:44 05:28 10.97
258 3030 CONIGLIO MARIO BEL V2 35 3:50:53 05:28 10.96
259 148 BIART QUENTIN BEL SH 124 3:51:03 05:29 10.96
260 526 MEULEMANS JULIEN BEL SH 125 3:51:17 05:29 10.94
261 729 WILLEMART MARCO BEL SH 126 3:51:29 05:29 10.93
262 508 MANETTE GILLES BEL SH 127 3:51:48 05:30 10.92
263 828 MERCIER MICHEL BEL V2 36 3:51:51 05:30 10.92
264 737 DEFÈCHE JULIEN BEL SH 128 3:51:56 05:30 10.91
265 306 EVRARD SEBASTIEN BEL SH 129 3:51:58 05:30 10.91
266 592 POTY GAETAN BEL V1 79 3:52:14 05:30 10.90
267 285 DOYEN BENJAMIN BEL SH 130 3:52:27 05:31 10.89
268 244 DELVAL AURORE BEL A1 7 3:52:37 05:31 10.88
269 422 JACQUEMIN FRÉDÉRIC BEL V1 80 3:52:56 05:31 10.87
270 558 PAGE BENJAMIN BEL V1 81 3:53:10 05:32 10.86
271 818 LÉONET FRANÇOIS BEL SH 131 3:53:17 05:32 10.85
272 866 VERNAILLEN DIMITRI BEL V1 82 3:53:18 05:32 10.85
273 340 GERVAIS MATTHIEU BEL SH 132 3:53:19 05:32 10.85
274 173 CANTIGNEAU OLIVIER BEL V1 83 3:53:22 05:32 10.85
275 519 MATHIEU THOMAS BEL SH 133 3:53:32 05:32 10.84
276 171 CALAPRISTI CHRISTINE ITA A2 4 3:53:36 05:32 10.84
277 605 RANDALL CHRISTOPHER GBR V3 8 3:53:41 05:32 10.83
278 574 PHILLIPSON NOEMIE GBR SD 7 3:53:47 05:32 10.83
279 846 PUKICA CLÉMENT FRA SH 134 3:53:48 05:33 10.83
280 514 MARTENS ADRIEN BEL SH 135 3:53:55 05:33 10.82
281 440 KOLODZIEJ PATRICE BEL V1 84 3:54:15 05:33 10.81
282 600 QUINTILI LAURENT BEL V1 85 3:54:18 05:33 10.80
283 663 SOUTMANS THIBAUT BEL SH 136 3:54:26 05:33 10.80
284 122 BAEKE FREDERIK BEL V1 86 3:54:30 05:34 10.79
285 3019 HENNEBERT BERTRAND BEL SH 137 3:54:34 05:34 10.79
286 184 CHAN FANG-YUE BEL SH 138 3:54:35 05:34 10.79
287 541 MORENO OLIVIER BEL V1 87 3:55:00 05:34 10.77
288 539 MONVILLE BERNARD BEL V1 88 3:55:01 05:34 10.77
289 636 SARLET CÉDRIC BEL SH 139 3:55:03 05:34 10.77
290 560 PAQUET DAVID BEL V1 89 3:55:15 05:35 10.76
291 480 LESCRENIER RICHARD BEL V1 90 3:55:17 05:35 10.76
292 588 POIVRE FRANÇOIS BEL SH 140 3:55:21 05:35 10.76
293 413 HUBIN PIERRE-OLIVIER BEL SH 141 3:55:23 05:35 10.75
294 245 DELVAUX GAETAN BEL V1 91 3:55:24 05:35 10.75
295 702 VAN KLEEF SÉBASTIEN BEL V1 92 3:55:25 05:35 10.75
296 466 LE GAL BENOIT BEL V2 37 3:55:31 05:35 10.75
297 655 SIERAKOWSKI DAMIEN BEL SH 142 3:55:37 05:35 10.74
298 328 FRIPIAT DIDIER BEL V1 93 3:55:40 05:35 10.74
299 132 BAYUBAHE JULES BEL SH 143 3:55:48 05:35 10.73
300 746 ALLARD CHARLES BEL V1 94 3:55:50 05:35 10.73
301 193 COLIN SÉBASTIEN BEL SH 144 3:55:50 05:35 10.73
302 424 JACQUEMIN PASCAL BEL V1 95 3:55:52 05:35 10.73
303 4197 HAULAIT VINCENT BEL SH 145 3:55:53 05:35 10.73
304 278 DOGA SILVIA ITA A2 5 3:55:53 05:35 10.73
305 523 MÉLARD JEAN-EMILE BEL SH 146 3:55:55 05:36 10.73
306 192 COHEN-SABBAN BRICE BEL SH 147 3:55:55 05:36 10.73
307 850 SCAFFE GUILLAUME BEL SH 148 3:56:02 05:36 10.72
308 473 LELOUP MATHIEU BEL SH 149 3:56:08 05:36 10.72
309 3027 MAROT CAROLINE BEL A1 8 3:56:09 05:36 10.72
310 515 MARTIN MONTAIGNE FRA SH 150 3:56:10 05:36 10.72
311 569 PEROO DAVID BEL V1 96 3:56:13 05:36 10.72
312 321 FODDIS YOURI BEL V1 97 3:56:17 05:36 10.71
313 516 MARTIN THIERRY BEL V1 98 3:56:22 05:36 10.71
314 432 JORION MICHAËL BEL V1 99 3:56:24 05:36 10.71
315 300 CALI FILIPPO ITA V1 100 3:56:25 05:36 10.71
316 668 STÉPHANE OGER BEL V1 101 3:56:29 05:36 10.70
317 842 PENA VICTOR ESP SH 151 3:56:38 05:37 10.70
318 831 MICHIELIN ERIC BEL V2 38 3:56:48 05:37 10.69
319 3029 LEVAQUE SÉBASTIEN BEL V1 102 3:56:53 05:37 10.69
320 249 DEMARTHE MANUEL FRA V1 103 3:56:54 05:37 10.68
321 108 DEGRAEVE JÉRÉMIE BEL SH 152 3:56:54 05:37 10.68
322 305 KAMINSKA IRMINA BEL SH 153 3:56:56 05:37 10.68
323 181 CASU MASSIMO BEL SH 154 3:57:14 05:37 10.67
324 183 CEUPPENS PATRICK BEL V3 9 3:57:17 05:37 10.67
325 503 MALENGREAU FREDERIC BEL V2 39 3:57:42 05:38 10.65
326 595 PRADERA SABRINA BEL SD 8 3:57:43 05:38 10.65
327 580 PIRON OLIVIER BEL V2 40 3:57:54 05:38 10.64
328 610 REINIER DENIS BEL SH 155 3:58:21 05:39 10.62
329 268 DESMET GAËTAN BEL SH 156 3:58:21 05:39 10.62
330 165 BRASSART MARCUS BEL V1 104 3:58:33 05:39 10.61
331 787 FARVACQUE JAMIE BEL SD 9 3:58:40 05:39 10.61
332 387 HANCE THIBAUT BEL SH 157 3:58:40 05:39 10.61
333 705 VANMARCKE GUY-BENOIT FRA SH 158 3:59:37 05:41 10.56
334 284 DORMAL QUENTIN BEL SH 159 3:59:51 05:41 10.55
335 4154 BERA BENJAMIN BEL SH 160 3:59:55 05:41 10.55
336 584 PLATTEAU DAVY BEL V1 105 3:59:55 05:41 10.55
337 607 RANWEZ LAURENT BEL V1 106 3:59:58 05:41 10.55
338 865 VERHEYE JÉRÉMY BEL SH 161 4:00:15 05:42 10.54
339 138 BERGHMANS DENIS BEL V1 107 4:00:20 05:42 10.53
340 715 VERMEULEN CÉLINE BEL SD 10 4:00:35 05:42 10.52
341 200 CONSTANDT THIERRY BEL V2 41 4:01:07 05:43 10.50
342 742 MICHAUX GWENAELLE BEL SD 11 4:01:10 05:43 10.50
343 829 MICHAUX DIMITRI BEL V1 108 4:01:16 05:43 10.49
344 147 BEVILACQUA RAPHAËL BEL V1 109 4:01:49 05:44 10.47
345 824 MAHIA BÉRANGÈRE BEL A1 9 4:01:51 05:44 10.47
346 614 RICCI GUILLAUME BEL SH 162 4:02:10 05:44 10.45
347 611 RESSENT NATHALIE FRA SD 12 4:02:17 05:45 10.45
348 840 PARMENTIER NAÏM BEL SH 163 4:02:23 05:45 10.44
349 493 LYNNE ROBERTSON GBR A1 10 4:02:24 05:45 10.44
350 367 GRAVIER NICOLAS FRA SH 164 4:02:26 05:45 10.44
351 421 IWES ALEXANDRE BEL SH 165 4:02:38 05:45 10.43
352 869 WAROUX PASCAL FRA V1 110 4:02:43 05:45 10.43
353 187 CHARLIER PASCAL BEL V2 42 4:02:46 05:45 10.43
354 465 LEFÈVRE OLIVIER BEL V1 111 4:02:58 05:46 10.42
355 332 GARRIDO JOSEPH FRA V3 10 4:03:18 05:46 10.40
356 391 OGUZ MUZA ALB V2 43 4:03:49 05:47 10.38
357 709 VELARDO FABIO ITA V2 44 4:03:55 05:47 10.38
358 586 POCHET ANTOINE BEL SH 166 4:03:58 05:47 10.38
359 740 FRANCART RÉGIS BEL V1 112 4:04:00 05:47 10.37
360 485 LIENARD VAL BEL V1 113 4:04:01 05:47 10.37
361 172 CAMBIER AURÉLIE BEL SD 13 4:04:12 05:47 10.37
362 735 ZULIANI ARNAUD BEL V1 114 4:04:21 05:48 10.36
363 568 PERMENTIER DELPHINE BEL A1 11 4:04:40 05:48 10.35
364 747 ASCHMAN ANTOINE LUX V3 11 4:04:55 05:48 10.33
365 186 CHARLIER JEAN-CHRISTOPHE BEL V2 45 4:05:31 05:49 10.31
366 738 DE DEKEN LAURENT BEL V1 115 4:05:33 05:49 10.31
367 238 DEHUT JÉRÉMY BEL SH 167 4:05:36 05:49 10.31
368 763 CLAEYS MANU BEL SH 168 4:05:49 05:50 10.30
369 202 CORDENIER ARNAUD BEL SH 169 4:06:05 05:50 10.29
370 338 GEORGES BORIS BEL SH 170 4:06:23 05:50 10.27
371 649 SEGERS ERIK BEL V1 116 4:06:23 05:50 10.27
372 316 FICHET LAURENT BEL V1 117 4:06:25 05:50 10.27
373 234 DEGEIMBRE SAN BEL V1 118 4:06:26 05:50 10.27
374 450 LALMAND ERIC BEL V2 46 4:06:31 05:51 10.27
375 357 GODFRIN VINCIANE BEL A2 6 4:06:32 05:51 10.27
376 127 BAUDE ARTHUR BEL SH 171 4:07:09 05:52 10.24
377 716 VERNIMMEN DENIS BEL V1 119 4:07:14 05:52 10.24
378 623 ROEKENS PIERRE BEL SH 172 4:07:16 05:52 10.24
379 841 PATRU DRAGOS ROU SH 173 4:07:22 05:52 10.23
380 797 GIORDANO HUGO BEL V1 120 4:07:26 05:52 10.23
381 482 LHERMITTE THOMAS BEL SH 174 4:07:29 05:52 10.23
382 235 DEGEMBE SIMON BEL SH 175 4:08:10 05:53 10.20
383 822 LÓPEZ SOSA JUAN FRANCISCO ESP SH 176 4:08:11 05:53 10.20
384 180 CASTRO RORDRIGUEZ RUBÉN DARIO ESP SH 177 4:08:17 05:53 10.19
385 252 DEMINNE GRÉGORY BEL SH 178 4:08:17 05:53 10.19
386 310 FERAUCHE MARIE BEL SD 14 4:08:25 05:53 10.19
387 277 DIEUX CAROLINE BEL SD 15 4:08:29 05:53 10.19
388 281 DONEUX WILLIAM BEL SH 179 4:09:05 05:54 10.16
389 427 JAUMOTTE ALINE BEL SD 16 4:09:06 05:54 10.16
390 3039 DECEUNINCK STEPHAN BEL V1 121 4:09:07 05:54 10.16
391 579 PIRON MORGAN BEL SH 180 4:09:07 05:54 10.16
392 227 DECLERCQ THOMAS BEL SH 181 4:09:18 05:55 10.15
393 598 QUEVRIN OLIVIER BEL V1 122 4:09:18 05:55 10.15
394 3038 COLSON GERY BEL V1 123 4:09:20 05:55 10.15
395 524 MERTENS CLEM BEL V3 12 4:09:31 05:55 10.14
396 170 BURY ANNE BEL SD 17 4:09:37 05:55 10.14
397 168 BREYNE GEOFFREY BEL V1 124 4:09:41 05:55 10.14
398 660 SOMMELETTE PASCAL BEL V1 125 4:09:52 05:55 10.13
399 575 PIERLOT JACQUES BEL V2 47 4:09:52 05:55 10.13
400 167 BRESSARD DENIS BEL SH 182 4:10:04 05:56 10.12
401 220 DEBOECK MIKAEL BEL SH 183 4:10:39 05:56 10.10
402 587 POCHET MAXIMILIEN BEL SH 184 4:10:57 05:57 10.09
403 613 REYNDERS THOMAS BEL SH 185 4:11:05 05:57 10.08
404 3035 DELAHAYE YVES BEL V2 48 4:11:10 05:57 10.08
405 420 ISTACE LAURANNE BEL SD 18 4:11:12 05:57 10.08
406 780 DEPAUE MARC BEL V2 49 4:11:19 05:57 10.07
407 479 LEROY MICHAËL BEL V1 126 4:11:19 05:57 10.07
408 425 JANNE XAVIER BEL V2 50 4:11:20 05:57 10.07
409 216 DAVID SIMON BEL SH 186 4:11:22 05:58 10.07
410 262 DEPLANQUES LAURENCE FRA A2 7 4:11:45 05:58 10.05
411 510 MARCHANT DIDIER BEL V2 51 4:11:51 05:58 10.05
412 537 MONIOTTE GABRIEL BEL V1 127 4:12:08 05:59 10.04
413 512 MARION CARINE BEL A1 12 4:12:09 05:59 10.04
414 134 BEAUGNÉE MAËL BEL SH 187 4:12:14 05:59 10.04
415 630 ROPSON DELPHINE BEL A1 13 4:12:18 05:59 10.03
416 626 ROLLAND SAMUEL BEL SH 188 4:12:22 05:59 10.03
417 779 DEOM OLIVIER BEL V2 52 4:12:26 05:59 10.03
418 365 GOURDIN MAXIMILIEN BEL V1 128 4:12:44 05:59 10.02
419 218 DEBAY PIERRE BEL V2 53 4:13:00 06:00 10.00
420 325 FRANCHIMONT STÉPHANE BEL V1 129 4:13:09 06:00 10.00
421 442 KUYPERS ANNE-CÉCILE BEL SD 19 4:13:13 06:00 10.00
422 727 WILLEMART EMMANUEL BEL SH 189 4:13:24 06:00 9.99
423 470 LEGROS FRANZ BEL V2 54 4:13:25 06:00 9.99
424 128 BAUDUIN DIDIER BEL V2 55 4:14:04 06:01 9.96
425 550 NANIOT DELPHINE BEL SD 20 4:14:06 06:01 9.96
426 326 FRENAY BENOIT BEL SH 190 4:14:06 06:01 9.96
427 462 LEDIEU FABRICE BEL V1 130 4:15:00 06:03 9.93
428 483 LIBOIS JEAN-MARC BEL V2 56 4:15:01 06:03 9.93
429 3033 CHARLIER THIBAULT BEL SH 191 4:15:31 06:03 9.91
430 423 JACQUEMIN JORDAN BEL SH 192 4:15:33 06:03 9.90
431 370 GRÉGOIRE LISETTE BEL SD 21 4:15:40 06:04 9.90
432 549 MUYS STÉPHANE BEL SH 193 4:15:44 06:04 9.90
433 103 ALBERS FRÉDÉRIC BEL V2 57 4:15:48 06:04 9.90
434 657 SIMON YANNICK BEL SH 194 4:15:48 06:04 9.90
435 201 SMITS KURT BEL V1 131 4:15:49 06:04 9.89
436 704 VAN LIMBERGEN INGRID BEL A1 14 4:16:04 06:04 9.88
437 861 VAN DEN BOSCH JOHN BEL xxx   4:16:09 06:04 9.88
438 750 BAILLEUL MARC FRA V3 13 4:16:13 06:04 9.88
439 105 ALLARD PHILIPPE FRA V4 1 4:16:13 06:04 9.88
440 553 OLIVIER ALEXANDRA BEL SD 22 4:16:17 06:04 9.88
441 577 PIRAPREZ MANU BEL SH 195 4:16:42 06:05 9.86
442 662 SOUPART KÉVIN BEL SH 196 4:16:58 06:05 9.85
443 801 GUILLAUME PIERRE BEL SH 197 4:16:58 06:05 9.85
444 708 VAN YCK CHRISTOPHE BEL V1 132 4:17:05 06:06 9.85
445 394 HENROTEAUX VIRGINIE BEL SD 23 4:17:19 06:06 9.84
446 555 OPAIX CHRISTOPHE BEL V1 133 4:17:19 06:06 9.84
447 368 GRAWEZ CELINE BEL SD 24 4:17:32 06:06 9.83
448 215 DASSY HÉLÈNE BEL SD 25 4:17:38 06:06 9.82
449 356 GODEFROID FABIAN BEL V1 134 4:17:44 06:07 9.82
450 228 DECNYF NANCY BEL A1 15 4:17:45 06:07 9.82
451 177 CARPIAUX SERGE BEL V2 58 4:17:49 06:07 9.82
452 264 DEROUBAIX GRÉGORY BEL V1 135 4:17:55 06:07 9.81
453 531 MINET LAURENT BEL V2 59 4:17:56 06:07 9.81
454 4166 CORNILLIE HERVE BEL V1 136 4:18:00 06:07 9.81
455 762 CHROMEKOVA SILVIA SVK A1 16 4:18:08 06:07 9.81
456 757 BROCAL ERIC BEL V1 137 4:18:19 06:07 9.80
457 870 WAROUX PHILIPPE FRA V2 60 4:18:36 06:08 9.79
458 107 ANCIAUX FRÉDÉRIC BEL SH 198 4:18:39 06:08 9.79
459 851 SEVRIN FABRICE BEL V1 138 4:18:42 06:08 9.78
460 109 ANQUET VIRGINIE FRA SD 26 4:18:57 06:08 9.77
461 562 PARFONRY BENOÎT BEL SD 27 4:19:27 06:09 9.76
462 871 WINTGENS SEBASTIEN BEL SH 199 4:19:36 06:09 9.75
463 191 COET CASSANDRE FRA SD 28 4:19:37 06:09 9.75
464 121 BACHIR ANDRÉAS BEL SH 200 4:19:52 06:10 9.74
465 208 CUSTINNE GRÉGORY BEL SH 201 4:19:58 06:10 9.74
466 855 TALLIEU BERTRAND BEL V1 139 4:20:24 06:10 9.72
467 242 DELHALLE RENAUD BEL SH 202 4:20:25 06:10 9.72
468 755 BOUGARD VALÉRY BEL SH 203 4:20:25 06:10 9.72
469 115 ARQUIN-GYS SOPHIE BEL SD 29 4:21:09 06:11 9.69
470 458 LAVIOLETTE MARIANNE BEL A1 17 4:21:15 06:12 9.69
471 403 HERTELEER CHRISTIAN BEL V3 14 4:21:27 06:12 9.68
472 643 SCHOONJANS CARINE BEL A2 8 4:21:29 06:12 9.68
473 203 CORDEWENER CELINE BEL SD 30 4:21:33 06:12 9.68
474 857 THOMAS ALEXANDRA BEL A1 18 4:21:53 06:12 9.67
475 651 SERVAIS BÉRENGÈRE BEL A2 9 4:21:54 06:12 9.66
476 331 GANCARZ GRZEGORZ POL V1 140 4:22:14 06:13 9.65
477 372 GRIGNARD JONATHAN BEL SH 204 4:22:23 06:13 9.65
478 522 MELANGE ALEXANDRE BEL V1 141 4:22:25 06:13 9.65
479 830 MICHEL DELPHINE BEL SD 31 4:22:27 06:13 9.64
480 546 MOUCHET JEAN-PIERRE BEL V2 61 4:22:27 06:13 9.64
481 150 BINOT RAPHAËL BEL V2 62 4:22:56 06:14 9.63
482 434 KAHNES OLIVIER BEL V2 63 4:23:03 06:14 9.62
483 209 DABOMPRE JEAN-FRANCOIS LUX V1 142 4:23:13 06:14 9.62
484 337 VANDENSCHRICK PIERRE BEL SH 205 4:23:31 06:15 9.61
485 359 GODINAS EMILIE BEL SD 32 4:23:32 06:15 9.60
486 3034 SPAEPEN FABIAN BEL V1 143 4:23:37 06:15 9.60
487 211 DAMIEN CLÉMENT BEL SH 206 4:23:46 06:15 9.60
488 772 DEGRAEVE CHRISTOPHE BEL V1 144 4:23:58 06:15 9.59
489 3025 KAN JIM CHAO-CHUN TWN SH 207 4:24:00 06:15 9.59
490 572 PETIT MONIQUE BEL A2 10 4:24:07 06:16 9.58
491 699 VANDEVEN DAMIEN FRA SH 208 4:24:10 06:16 9.58
492 847 RENON JEAN-MARC FRA V2 64 4:24:11 06:16 9.58
493 3040 MEYER DELPHINE FRA SD 33 4:24:13 06:16 9.58
494 770 DAUCHOT JEAN-LUC BEL V2 65 4:24:18 06:16 9.58
495 239 DEKEYSER ALEXANDRE BEL V2 66 4:24:48 06:17 9.56
496 543 MOTTIN MARC BEL V2 67 4:24:54 06:17 9.56
497 813 KWASNIEWSKI TOMASZ POL SH 209 4:25:03 06:17 9.55
498 748 BABINSKI SZYMON POL V1 145 4:25:03 06:17 9.55
499 241 DELECOUR STEPHANE FRA SH 210 4:25:27 06:18 9.54
500 644 SCIACCA LUIGI BEL V1 146 4:25:52 06:18 9.52
501 257 DE PAEPE ALEXANDRE BEL SH 211 4:26:32 06:19 9.50
502 774 DELAVAL ARNAUD BEL SH 212 4:26:40 06:19 9.49
503 650 SERESSIA MAÏTÉ BEL SD 34 4:26:46 06:19 9.49
504 248 DELVAUX PIERRE-YVES BEL SH 213 4:26:47 06:19 9.49
505 307 FABIENNE DEWITTE BEL A1 19 4:26:51 06:20 9.49
506 323 FONTENOY THIBAUT BEL SH 214 4:26:51 06:20 9.49
507 513 MARLET PIERRE BEL V2 68 4:27:06 06:20 9.48
508 845 PONCELET LAURENT BEL V1 147 4:27:17 06:20 9.47
509 456 LARIVE JEROME BEL V1 148 4:28:17 06:22 9.43
510 754 BOLAIN FABIAN BEL SH 215 4:28:17 06:22 9.43
511 119 AUZERAL BENOIT FRA V2 69 4:28:46 06:22 9.42
512 758 CALLOUD VINCENT BEL V2 70 4:28:48 06:22 9.42
513 520 MATHY JEAN-LUC BEL V3 15 4:29:02 06:23 9.41
514 162 BOUDART PHILIPPE BEL V1 149 4:29:06 06:23 9.41
515 690 VANDELAER DAMIEN BEL SH 216 4:29:49 06:24 9.38
516 721 VROONEN VERONIQUE BEL A2 11 4:30:00 06:24 9.37
517 804 HENRY RAPHAËL BEL SH 217 4:30:33 06:25 9.36
518 417 HUPPERTZ GAETAN BEL V1 150 4:30:42 06:25 9.35
519 320 FOCANT MICHAEL BEL SH 218 4:30:47 06:25 9.35
520 210 D'ALTOE LAURENT BEL V2 71 4:31:13 06:26 9.33
521 384 HABRA AUGUSTIN BEL SH 219 4:31:15 06:26 9.33
522 448 LAFFINEUR JEAN-MICHEL BEL V2 72 4:31:26 06:26 9.33
523 468 LEGRAIN CAROLINE BEL SD 35 4:31:27 06:26 9.32
524 400 HERNANDEZ-DISPAUX JOAQUIM BEL SH 220 4:32:29 06:28 9.29
525 678 THIROUX STEFFI BEL SD 36 4:32:46 06:28 9.28
526 293 DUPAS OLGA FRA A2 12 4:33:01 06:28 9.27
527 286 DRIESSENS PIERRE BEL V4 2 4:33:11 06:29 9.27
528 291 DUMONT ANTOINE BEL SH 221 4:33:19 06:29 9.26
529 3037 BRANCALEONE PIERRE BEL V2 73 4:33:45 06:29 9.25
530 838 NOIROT CHRISTIAN BEL SH 222 4:33:53 06:30 9.24
531 593 POURIGNAUX YVES BEL SH 223 4:34:56 06:31 9.21
532 509 MARCHAL LOIC BEL SH 224 4:35:26 06:32 9.19
533 730 WILLEMART MARIE-EVE BEL SD 37 4:35:27 06:32 9.19
534 110 ANTOINE RAPHAEL BEL V1 151 4:35:31 06:32 9.19
535 224 DECHAMPS JULIEN BEL SH 225 4:36:13 06:33 9.16
536 561 PARDOEN CHRISTIAN BEL V2 74 4:36:15 06:33 9.16
537 270 DETIENNE SIMON BEL SH 226 4:36:25 06:33 9.16
538 112 ARCQ JEREMY BEL SH 227 4:36:28 06:33 9.16
539 157 BONIFACE MIKE BEL SH 228 4:36:31 06:33 9.15
540 342 GILBOUX STÉPHANIE BEL SD 38 4:36:58 06:34 9.14
541 693 VANDERLIN CHARLENE BEL SD 39 4:37:00 06:34 9.14
542 407 HORION JULIEN BEL SH 229 4:37:53 06:35 9.11
543 720 VIVIER ERIC BEL SH 230 4:38:31 06:36 9.09
544 565 PATUZZO DAVID BEL V1 152 4:38:38 06:36 9.08
545 412 HUBERLAND JEAN-MARC BEL V1 153 4:39:28 06:37 9.06
546 859 THOMAS FABRICE BEL V2 75 4:39:35 06:38 9.05
547 500 MAHY MARIE BEL A1 20 4:39:39 06:38 9.05
548 408 HORLAIT CELINE BEL A1 21 4:40:04 06:38 9.04
549 415 HUFKENS LOUIS BEL V3 16 4:40:05 06:38 9.04
550 585 PLATZBECKER PASCAL BEL V2 76 4:40:27 06:39 9.03
551 739 BOGAERT JEAN-SÉBASTIEN DEU V1 154 4:40:38 06:39 9.02
552 518 MATHIEU ANTHONY BEL SH 231 4:40:44 06:39 9.02
553 318 FLAHAUX ANNE BEL SD 40 4:40:57 06:40 9.01
554 169 BURLET OLIVIER BEL SH 232 4:40:58 06:40 9.01
555 280 DONCEEL MARC BEL V2 77 4:41:07 06:40 9.00
556 554 OMÉ THOMAS FRA SH 233 4:41:10 06:40 9.00
557 616 ROBAYE SOPHIE BEL A1 22 4:41:13 06:40 9.00
558 854 STEFFENS BENOIT BEL V1 155 4:41:33 06:40 8.99
559 135 BEAUGNET DAVID BEL V1 156 4:42:22 06:42 8.96
560 581 PIROTTE ALAIN BEL V2 78 4:42:31 06:42 8.96
561 719 VINOGRADOV BORIS RUS V2 79 4:43:35 06:43 8.93
562 718 VIGNERON JULIEN BEL SH 234 4:44:09 06:44 8.91
563 194 COLLIGNON SEBASTIEN BEL V1 157 4:44:32 06:45 8.90
564 350 GISTELINCK IVO BEL SH 235 4:44:55 06:45 8.88
565 279 DOHET ANNE BEL A1 23 4:45:40 06:46 8.86
566 826 MARTIN JEAN-YVES BEL V1 158 4:45:42 06:46 8.86
567 120 AVAU BENOIT BEL V3 17 4:46:00 06:47 8.85
568 691 VAN DEN DAELEN LAURE BEL SD 41 4:46:25 06:47 8.84
569 113 ARNOULD ANNE-FRANÇOISE BEL A2 13 4:47:09 06:48 8.81
570 732 WOUTERS ANNE BEL SD 42 4:47:15 06:49 8.81
571 777 DELSART JEAN-BAPTISTE BEL V1 159 4:47:22 06:49 8.81
572 582 PIRSON OLIVIER BEL SH 236 4:47:36 06:49 8.80
573 723 WERY ANTHONY BEL SH 237 4:48:03 06:50 8.79
574 288 DUBASIN KEVIN BEL SH 238 4:48:03 06:50 8.79
575 126 BARBION MELODIE BEL SD 43 4:48:04 06:50 8.79
576 527 MEUNIER VIRGINIE FRA A1 24 4:48:11 06:50 8.78
577 567 PECHON AMÉLIE BEL SD 44 4:48:56 06:51 8.76
578 571 PETERS JULIE BEL A1 25 4:48:59 06:51 8.76
579 4118 HONNAY SOPHIE BEL A1 26 4:49:57 06:52 8.73
580 741 FRAU PINO BEL V1 160 4:50:42 06:53 8.71
581 445 LABY DOMINIQUE BEL V2 80 4:50:52 06:54 8.70
582 734 YANNICK VANCOLEN BEL V2 81 4:50:53 06:54 8.70
583 253 DEMONSEAU NICOLAS BEL V2 82 4:52:10 06:56 8.66
584 1207 DA SILVA ISA PRT A1 27 4:52:12 06:56 8.66
585 511 MARDULYN JEAN BEL V1 161 4:53:43 06:58 8.62
586 816 LAZARON DIMITRI BEL V1 162 4:54:09 06:58 8.61
587 436 KETELE CORALIE BEL xxx   4:54:45 06:59 8.59
588 418 HUYGHEBAERT DANIEL FRA V4 3 4:55:38 07:00 8.56
589 713 VERHAGHEN PATRIK BEL V2 83 4:55:50 07:01 8.56
590 206 CRUQUENAIRE ALEX BEL V1 163 4:55:59 07:01 8.55
591 469 LEGRAND PIERRE BEL SH 239 4:56:15 07:01 8.54
592 189 CHRISTOPHE HALLARD BEL V1 164 4:56:57 07:02 8.52
593 267 DE SLOOVER ÉTIENNE BEL V2 84 4:57:05 07:03 8.52
594 3036 DELFORGE ANTOINE BEL SH 240 4:57:17 07:03 8.51
595 217 DEBAILLE MAXIME BEL SH 241 4:57:23 07:03 8.51
596 495 MACHNIK WOJCIECH POL V1 165 4:57:47 07:04 8.50
597 766 CONRATTE MARINE FRA SD 45 4:58:04 07:04 8.49
598 428 JAUMOTTE ALINE BEL SD 46 4:59:46 07:06 8.44
599 392 HAUSTRATE FRED BEL V2 85 4:59:47 07:06 8.44
600 481 LESTRATE SOPHIE BEL A1 28 5:01:21 07:09 8.40
601 745 ADANT STÉPHANIE BEL SD 47 5:01:21 07:09 8.40
602 435 KAMPS NADIA BEL A1 29 5:01:30 07:09 8.40
603 153 BODART ANTHONY BEL SH 242 5:01:59 07:09 8.38
604 319 FLAHAUX PIERRE BEL V1 166 5:04:08 07:13 8.32
605 1076 BLIN XAVIER BEL V1 167 5:06:34 07:16 8.26
606 504 MALHERBE LAUREELEN BEL SD 48 5:06:56 07:17 8.25
607 684 TRAPLETTI FRANCK BEL V2 86 5:08:33 07:19 8.20
608 212 DANDOY BENEDICTE BEL A1 30 5:09:38 07:20 8.17
609 689 VANCOPPENOLLE KIM BEL A1 31 5:10:07 07:21 8.16
610 255 DENUIT LESLEY BEL SD 49 5:10:13 07:21 8.16
611 578 PIRON DANIEL BEL V4 4 5:10:16 07:21 8.16
612 104 ALBRECHT DAISY BEL A2 14 5:13:35 07:26 8.07
613 548 MULS MARION BEL A2 15 5:14:05 07:27 8.06
614 185 CHARDON NATHALIE BEL A2 16 5:14:49 07:28 8.04
615 798 GODLEWSKY THOMAS DEU V2 87 5:15:47 07:29 8.02
616 287 DUBASIN JASSON BEL SH 243 5:17:17 07:31 7.98
617 414 HUBLET INTI BEL SH 244 5:17:58 07:32 7.96
618 521 MEERT ERIKA BEL A1 32 5:19:05 07:34 7.93
619 226 DECHEF DANI§LE BEL A2 17 5:20:35 07:36 7.90
620 353 GOBERT LAURENT BEL V2 88 5:22:11 07:38 7.86
621 106 AMBUHL VINCENT CHE V2 89 5:24:25 07:41 7.80
622 457 LAUWERYS FABRICE BEL SH 245 5:24:35 07:42 7.80
623 544 MOTTOULLE VANESSA BEL SD 50 5:24:35 07:42 7.80
624 591 POTTY CARINE BEL A1 33 5:25:15 07:43 7.78
625 230 DE COMMER NICOLAS BEL SH 246 5:32:03 07:52 7.62
626 712 VERDEBOUT THOMAS BEL SH 247 5:32:34 07:53 7.61
627 360 GOFFAUX BRIGITTE BEL A2 18 5:33:24 07:54 7.59
628 389 HANS JEROME BEL V1 168 5:46:00 08:12 7.32
629 174 CAPELLE LUDOVIC BEL V1 169 5:46:03 08:12 7.31
630 133 BEAUDOT MARC BEL V3 18 5:46:49 08:13 7.30
631 369 GREGOIRE CHARLENE BEL SD 51 5:48:27 08:16 7.26